Terug naar catalogus

WESTFORD NEEDLES

LostPO
NORAD 2377·DEBRIS·🇺🇸 United States

Gelanceerd May 9, 1963 vanaf Vandenberg Space Force Base

Loading…

Volgende Passages (komende 24 uur)

TLE

VerouderdSource: Space-Track

Epoch: May 22, 2026, 04:08 UTC

1 02377U 63014X   26142.17251139 -.00000717  00000-0 -28915+0 0  9998
2 02377  87.4053 166.5370 0483010 301.2951  54.1467  8.68672115923749

Volg WESTFORD NEEDLES in realtime met AllMySat

Download on the App Store